Showing default

GALILEO 9 (205), 40889

Orbit data source: Space-Track

GALILEO 9 (205), 40889 is a payload satellite owned by GNSS Agency (ESA) that was launched on Fri, 11 Sep 2015 UTC via a SOYUZ-ST-B launch vehicle from the French Guiana (FRGUI). Payload-class satellites include a variety of spacecraft equipped with specific instruments for various scientific and technological missions. These include communications satellites like Starlink; space stations such as the ISS; scientific satellites like the Hubble; Earth observation satellites from companies like Planet Labs, Umbra, and HawkEye 360; GPS; miniature CubeSats for education and research; and military/defense satellites.

Loading next visibility...
Identifier
40889, 2015-045A
Orbit
Active
Country
Flag of ESAESA
Related business
Manufacturer
OHB
Mission
Operational Civil Navigation
Bus & Motor
GALILEOSAT, AOCS
Mass
733 kg wet, 660 kg dry
Launch date (UTC)
2015-09-11 (10 years ago)
Launch vehicle
SOYUZ-ST-B
Launch site
French Guiana (FRGUI)
Object type
Payload
Rocket body
Debris
Shape & HBR
Box + 2 Pan, 7.3 m
Radar Cross Section
9.223 m², Large (>1 m²)

Expand to show TLE details & history
Last TLE update: 2 days ago

TLE from 2 days ago
0 GALILEO 9 (205)
1 40889U 15045A   25351.98227854  .00000059  00000-0  00000-0 0  9999
2 40889  55.0015 226.6133 0005989  39.6119 320.5359  1.70473246 63921
Epoch: 2025-12-17T23:34Z
TLE epoch observation values (Epoch: 2025-12-17T23:34:28.865Z)
Latitude
0.00001°
Longitude
146.16013°
Altitude
23,208.845 km
Speed
3.671 km/s
True Right ascension
15h 06m 29s
True Declination
0° 00' 00"
Sunlit
Object was in daylight at epoch
Visualization orbit readout
Latitude
Unknown
Longitude
Unknown
Altitude
Unknown
Speed
Unknown
Apparent Right ascension
Unknown
Apparent Declination
Unknown
Sunlit
N/A
Visualization observer readout
Local Sidereal Time
23:57:00
Azimuth
Unknown
Elevation
Unknown
Doppler factor
Unknown
Orbital elements
Apogee altitude
23,240.006 km
Perigee altitude
23,204.551 km
Semi-major axis
29,600.416 km
Eccentricity
0.0006
Inclination
55.0015°
RAAN
226.6133°
Arg. of periapsis
39.6119°
True anomaly
320.49225°
Mean anomaly
320.5359°
Eccentric anomaly
320.51408°
Mean motion
0.42618 °/min
Orbital period
844.71 mins
BSTAR
0
Loading maneuver chart data...
Computing Atmospheric mass density...
Loading historical data...
Loading historical data...
Loading historical data...
Loading historical data...
Loading historical data...
Loading historical data...
Loading historical data...
Other satellites on launch #45 in the year 2015 (2015-09-11 UTC)

Documentation

Showing up to 5 results
|